This is the latest recevied weather packets stored in our database for station/object SP3SWJ-13. If no packets are shown the sender has not sent any weather packets the latest 10 day(s).
| Time | Temp. | Humidity | Pressure | Rain* | Wind** | Luminosity | Snow |
|---|---|---|---|---|---|---|---|
| 1777712180 | 22.78° C | 34% | 1014.5 hPa | - | - | 613 W/m² | - |
| 1777711879 | 22.22° C | 35% | 1014.5 hPa | - | - | 598 W/m² | - |
| 1777711578 | 22.78° C | 36% | 1014.6 hPa | - | - | 585 W/m² | - |
| 1777711278 | 23.33° C | 35% | 1014.6 hPa | - | - | 592 W/m² | - |
| 1777710976 | 22.78° C | 34% | 1014.7 hPa | - | - | 574 W/m² | - |
| 1777710675 | 22.22° C | 35% | 1014.7 hPa | - | - | 565 W/m² | - |
| 1777710375 | 22.78° C | 36% | 1014.8 hPa | - | - | 554 W/m² | - |
| 1777710074 | 22.22° C | 34% | 1014.7 hPa | - | - | 543 W/m² | - |
| 1777709773 | 21.67° C | 38% | 1014.7 hPa | - | - | 530 W/m² | - |
| 1777709472 | 21.67° C | 39% | 1014.7 hPa | - | - | 517 W/m² | - |
| 1777709171 | 22.78° C | 38% | 1014.8 hPa | - | - | 509 W/m² | - |
| 1777708870 | 22.22° C | 37% | 1014.8 hPa | - | - | 502 W/m² | - |
| 1777708569 | 22.22° C | 37% | 1014.7 hPa | - | - | 493 W/m² | - |
| 1777708269 | 21.67° C | 40% | 1014.8 hPa | - | - | 478 W/m² | - |
| 1777707968 | 22.22° C | 37% | 1014.8 hPa | - | - | 463 W/m² | - |
| 1777707366 | 21.11° C | 39% | 1014.8 hPa | - | - | 435 W/m² | - |
| 1777707065 | 20.56° C | 42% | 1014.8 hPa | - | - | 423 W/m² | - |
| 1777706764 | 20° C | 41% | 1014.9 hPa | - | - | 414 W/m² | - |
| 1777706463 | 20° C | 42% | 1014.8 hPa | - | - | 401 W/m² | - |
| 1777706162 | 19.44° C | 44% | 1014.9 hPa | - | - | 387 W/m² | - |
| 1777705861 | 19.44° C | 43% | 1014.9 hPa | - | - | 373 W/m² | - |
| 1777705558 | 18.89° C | 42% | 1014.9 hPa | - | - | 360 W/m² | - |
| 1777705256 | 18.33° C | 47% | 1014.9 hPa | - | - | 345 W/m² | - |
| 1777704955 | 18.33° C | 46% | 1014.9 hPa | - | - | 332 W/m² | - |
| 1777704655 | 17.22° C | 48% | 1014.9 hPa | - | - | 317 W/m² | - |
* Rain since midnight (hover to see other rain measurements)
** Current wind speed in m/s (hover to see current wind gust speed)